KG4GJX Weather Reports


time (UTC)temp
C
wind
direction
speed
KPH
gust
KPH
rain 1hr
cm
rain 24hr
cm
rain mn
cm
humidity
%
barometer
mb
20260505195207 26 133 9.7 29.0 0.00 0.00 0.00 43 1012.1
20260505194104 26 152 9.7 29.0 0.00 0.00 0.00 42 1012.1
20260505193002 26 188 6.4 27.4 0.00 0.00 0.00 43 1012.1
20260505191859 25 229 8.0 20.9 0.00 0.00 0.00 43 1012.5
20260505190757 26 147 8.0 17.7 0.00 0.00 0.00 44 1012.8
20260505185654 26 141 4.8 27.4 0.00 0.00 0.00 47 1012.8
20260505184552 25 160 8.0 24.1 0.00 0.00 0.00 46 1012.8
20260505183449 25 122 8.0 25.7 0.00 0.00 0.00 43 1013.5
20260505182347 25 175 6.4 29.0 0.00 0.00 0.00 45 1013.5
20260505181244 25 225 6.4 17.7 0.00 0.00 0.00 47 1013.5
20260505180142 25 173 12.9 19.3 0.00 0.00 0.00 46 1013.8
20260505175040 25 195 8.0 24.1 0.00 0.00 0.00 46 1014.2
20260505173937 25 202 3.2 19.3 0.00 0.00 0.00 47 1014.2
20260505172835 24 198 11.3 22.5 0.00 0.00 0.00 48 1014.2
20260505171733 25 150 8.0 19.3 0.00 0.00 0.00 45 1014.5
20260505170630 24 179 11.3 14.5 0.00 0.00 0.00 48 1014.9
20260505165527 24 168 1.6 20.9 0.00 0.00 0.00 49 1014.9
20260505164425 24 62 4.8 22.5 0.00 0.00 0.00 51 1014.9
20260505163323 23 171 8.0 19.3 0.00 0.00 0.00 53 1014.9
20260505162221 23 73 4.8 14.5 0.00 0.00 0.00 55 1014.9
20260505161118 23 210 6.4 12.9 0.00 0.00 0.00 55 1014.9
20260505152709 22 167 3.2 11.3 0.00 0.00 0.00 59 1014.9
20260505151607 22 179 3.2 11.3 0.00 0.00 0.00 58 1014.9
20260505150504 21 175 0.0 12.9 0.00 0.00 0.00 62 1014.9
20260505124133 15 187 0.0 0.0 0.00 0.00 0.00 85 1014.5
20260505123031 15 187 0.0 4.8 0.00 0.00 0.00 86 1014.2
20260505121929 14 22 0.0 3.2 0.00 0.00 0.00 90 1014.2
20260505120826 13 146 0.0 3.2 0.00 0.00 0.00 91 1014.2
20260505115724 12 111 0.0 6.4 0.00 0.00 0.00 92 1013.8
20260505114621 11 161 3.2 6.4 0.00 0.00 0.00 92 1013.8
20260505113519 11 165 0.0 3.2 0.00 0.00 0.00 94 1013.5
20260505112416 10 128 1.6 3.2 0.00 0.00 0.00 95 1013.5
20260505111314 10 139 0.0 0.0 0.00 0.00 0.00 96 1013.2
20260505110212 10 60 0.0 0.0 0.00 0.00 0.00 97 1013.2
20260505101805 10 60 0.0 0.0 0.00 0.00 0.00 95 1012.8
20260505100702 10 60 0.0 0.0 0.00 0.00 0.00 94 1013.2
20260505095600 10 60 0.0 0.0 0.00 0.00 0.00 93 1013.2
20260505094457 10 60 0.0 1.6 0.00 0.00 0.00 93 1013.2
20260505093355 11 241 0.0 1.6 0.00 0.00 0.00 92 1012.8
20260505092252 11 88 0.0 0.0 0.00 0.00 0.00 91 1012.8
20260505091150 11 88 0.0 0.0 0.00 0.00 0.00 89 1012.8
20260505090047 11 190 0.0 0.0 0.00 0.00 0.00 89 1012.8
20260505084945 11 121 0.0 4.8 0.00 0.00 0.00 89 1012.8
20260505083843 12 203 0.0 0.0 0.00 0.00 0.00 87 1012.8
20260505082741 12 203 0.0 6.4 0.00 0.00 0.00 86 1013.2
20260505081639 12 91 0.0 1.6 0.00 0.00 0.00 86 1013.2
20260505080536 12 151 0.0 0.0 0.00 0.00 0.00 86 1013.2
20260505075434 12 196 0.0 4.8 0.00 0.00 0.00 86 1013.2
20260505074331 11 127 0.0 3.2 0.00 0.00 0.00 88 1013.2
20260505073229 11 142 0.0 4.8 0.00 0.00 0.00 90 1013.2
20260505072127 11 180 1.6 0.0 0.00 0.00 0.00 91 1013.2
20260505071024 11 153 0.0 0.0 0.00 0.00 0.00 88 1013.2
20260505065922 12 153 0.0 0.0 0.00 0.00 0.00 87 1013.2
20260505064820 12 153 0.0 0.0 0.00 0.00 0.00 85 1013.2
20260505063717 13 153 0.0 0.0 0.00 0.00 0.00 81 1013.2
20260505062615 13 153 0.0 0.0 0.00 0.00 0.00 77 1013.5
20260505061512 14 153 0.0 0.0 0.00 0.00 0.00 74 1013.5
20260505060410 15 153 0.0 1.6 0.00 0.00 0.00 71 1013.2
20260505055308 15 189 0.0 6.4 0.00 0.00 0.00 69 1013.2
20260505054205 15 117 0.0 9.7 0.00 0.00 0.00 69 1013.2
20260505053103 16 158 6.4 8.0 0.00 0.00 0.00 68 1013.2
20260505052000 16 171 3.2 12.9 0.00 0.00 0.00 69 1013.2
20260505050858 16 182 4.8 11.3 0.00 0.00 0.00 70 1013.2
20260505041346 13 195 3.2 4.8 0.00 0.00 0.00 84 1013.2
20260505040244 13 107 0.0 1.6 0.00 0.00 0.00 83 1013.2
20260505035142 13 98 0.0 0.0 0.00 0.00 0.00 82 1013.2
20260505034039 13 98 0.0 0.0 0.00 0.00 0.00 81 1013.2
20260505032937 13 98 0.0 0.0 0.00 0.00 0.00 83 1013.2
20260505031834 13 98 0.0 0.0 0.00 0.00 0.00 80 1013.2
20260505030732 13 98 0.0 0.0 0.00 0.00 0.00 80 1013.5
20260505024529 13 98 0.0 0.0 0.00 0.00 0.00 78 1013.5
20260505023427 14 98 0.0 0.0 0.00 0.00 0.00 77 1013.5
20260505022325 14 98 0.0 0.0 0.00 0.00 0.00 76 1013.5
20260505021223 15 98 0.0 0.0 0.00 0.00 0.00 74 1013.2
20260505020120 15 98 0.0 0.0 0.00 0.00 0.00 73 1013.2
20260505015018 15 98 0.0 0.0 0.00 0.00 0.00 70 1013.2
20260505013915 16 98 0.0 0.0 0.00 0.00 0.00 68 1013.2
20260505012813 17 98 0.0 0.0 0.00 0.00 0.00 64 1012.8
20260505011710 17 98 0.0 0.0 0.00 0.00 0.00 62 1012.8
20260505010608 18 98 0.0 1.6 0.00 0.00 0.00 58 1012.8
20260505005506 20 115 0.0 0.0 0.00 0.00 0.00 55 1012.8
20260505004403 20 116 1.6 3.2 0.00 0.00 0.00 52 1012.8
20260505003300 21 182 4.8 9.7 0.00 0.00 0.00 51 1012.8
20260505002158 21 127 3.2 8.0 0.00 0.00 0.00 51 1012.5
20260505001055 21 139 6.4 12.9 0.00 0.00 0.00 50 1012.5
20260504235953 22 114 3.2 16.1 0.00 0.00 0.00 50 1012.5
20260504234851 22 185 8.0 16.1 0.00 0.00 0.00 50 1012.1
20260504233748 23 50 1.6 8.0 0.00 0.00 0.00 50 1012.1
20260504232646 23 144 8.0 12.9 0.00 0.00 0.00 48 1012.5
20260504231543 23 173 4.8 20.9 0.00 0.00 0.00 48 1012.5
20260504230441 24 230 3.2 17.7 0.00 0.00 0.00 50 1012.5
20260504225339 24 88 4.8 12.9 0.00 0.00 0.00 48 1012.5
20260504224236 25 182 6.4 14.5 0.00 0.00 0.00 48 1012.5
20260504223134 25 158 8.0 14.5 0.00 0.00 0.00 47 1012.5
20260504222032 25 197 8.0 14.5 0.00 0.00 0.00 48 1012.5
20260504220929 25 196 8.0 12.9 0.00 0.00 0.00 48 1012.5
20260504215827 25 186 4.8 11.3 0.00 0.00 0.00 48 1012.5
20260504214724 25 125 4.8 14.5 0.00 0.00 0.00 47 1012.5
20260504213622 25 101 3.2 17.7 0.00 0.00 0.00 48 1012.5
20260504212519 25 206 6.4 11.3 0.00 0.00 0.00 47 1012.5
20260504211417 25 159 6.4 14.5 0.00 0.00 0.00 48 1012.5
20260504210314 25 219 6.4 12.9 0.00 0.00 0.00 46 1012.8
20260504205212 26 185 8.0 11.3 0.00 0.00 0.00 44 1012.8
20260504204110 26 153 4.8 14.5 0.00 0.00 0.00 46 1013.2
20260504203007 26 224 3.2 27.4 0.00 0.00 0.00 46 1013.2
20260504201905 26 319 4.8 19.3 0.00 0.00 0.00 44 1013.2
20260504200803 26 180 6.4 17.7 0.00 0.00 0.00 45 1013.2
20260504195701 26 152 4.8 19.3 0.00 0.00 0.00 45 1013.2